[Iaude] MPEC G128: 2024 GG2 [a=0.89,e=0.35,i=25.0,H=24.3]

mpec at cfa.harvard.edu mpec at cfa.harvard.edu
Wed Apr 10 04:32:10 EDT 2024


M.P.E.C. 2024-G128                               Issued 2024 April 10, 08:30 UT

     The Minor Planet Electronic Circulars contain information on unusual
         minor planets, routine data on comets and natural satellites,
         and occasional editorial announcements.  They are published
    on behalf of Division F of the International Astronomical Union by the
          Minor Planet Center, Smithsonian Astrophysical Observatory,
                          Cambridge, MA 02138, U.S.A.
			  
             Prepared using the Tamkin Foundation Computer Network

                              MPC at CFA.HARVARD.EDU
            URL https://www.minorplanetcenter.net/    ISSN 1523-6714

                                    2024 GG2                                    


Observations:
     K24G02G* C2024 04 07.41642716 03 33.559+37 28 58.55         21.59GVEG128V00
     K24G02G  C2024 04 07.42143216 03 28.717+37 28 39.94         22.40GVEG128V00
     K24G02G  C2024 04 07.42646716 03 24.037+37 28 22.33         21.89GVEG128V00
     K24G02G  C2024 04 07.43145316 03 19.228+37 28 04.19         22.32GVEG128V00
     K24G02G KC2024 04 07.46608 16 02 46.28 +37 25 57.5          21.6 RVEG128291
     K24G02G KC2024 04 07.47241 16 02 40.26 +37 25 34.2          21.4 RVEG128291
     K24G02G KC2024 04 07.47552016 02 37.280+37 25 21.80         21.65GVEG128V06
     K24G02G KC2024 04 07.47869 16 02 34.31 +37 25 10.9          21.3 RVEG128291
     K24G02G KC2024 04 07.47886716 02 34.090+37 25 09.60         21.40GVEG128V06
     K24G02G KC2024 04 07.48221416 02 30.920+37 24 56.80         21.60GVEG128V06
     K24G02G KC2024 04 07.48556016 02 27.720+37 24 44.40         21.35GVEG128V06
     K24G02G KC2024 04 08.30912 15 49 44.10 +36 30 21.7          22.0 RVEG128291
     K24G02G KC2024 04 08.31352 15 49 39.88 +36 30 03.5          22.1 RVEG128291
     K24G02G KC2024 04 08.31796 15 49 35.56 +36 29 45.3          22.3 RVEG128291
     K24G02G 7C2024 04 10.13590215 20 27.400+34 00 21.76         20.9 GVEG128Z84
     K24G02G 7C2024 04 10.14820415 20 15.115+33 59 11.76         20.9 GVEG128Z84
     K24G02G 7C2024 04 10.16068815 20 02.685+33 58 00.89         20.8 GVEG128Z84

Observer details:
291 LPL/Spacewatch II.  Observer C. Lejoly.  1.8-m f/2.7 reflector + CCD.
V00 Kitt Peak-Bok.  Observer K. W. Wierzchos.  Measurers M. J. Brucker, C. E.
    Woodward, T. Beuden, V. F. Carvajal, D. Fay, J. B. Fazekas, D. C. Fuls, A.
    R. Gibbs, H. Groeller, J. K. Hogan, R. A. Kowalski, S. M. Larson, C.
    Lejoly, G. J. Leonard, R. A. Mastaler, R. S. McMillan, D. Rankin, R. L.
    Seaman, F. C. Shelly, K. W. Wierzchos.  2.25-m reflector + 4x4K mosaic
    CCD.
V06 Catalina Sky Survey-Kuiper.  Observer J. K. Hogan.  Measurers T. Beuden,
    V. F. Carvajal, D. Fay, J. B. Fazekas, D. C. Fuls, A. R. Gibbs, A. D.
    Grauer, H. Groeller, J. K. Hogan, R. A. Kowalski, S. M. Larson, G. J.
    Leonard, D. Rankin, R. L. Seaman, F. C. Shelly, K. W. Wierzchos.  1.55-m
    reflector + 1K CCD.
Z84 Calar Alto-Schmidt.  Observers F. Ocana, R. Kresken, M. Micheli, L.
    Conversi.  Measurers F. Ocana, M. Micheli.  0.8-m f/3 Schmidt + CCD.

Orbital elements:
2024 GG2                                                 Earth MOID = 0.1163 AU
Epoch 2024 Mar. 31.0 TT = JDT 2460400.5                 MPC                     
M  99.70420              (2000.0)            P               Q                  
n   1.17231957     Peri.   26.00251     +0.55138489     -0.80356261             
a   0.8907832      Node    32.02021     +0.67253853     +0.26914257             
e   0.3513088      Incl.   25.01330     +0.49362601     +0.53089491             
P   0.84           H   24.34          G   0.15           U   8                  
Residuals in seconds of arc
240407 V00  0.1+  0.1+    240407 V06  0.1+  0.1-    240408 291  0.2+  0.4+
240407 V00 (0.9-  0.5-)   240407 291  0.1-  0.1+    240408 291  0.1-  0.4+
240407 V00  0.3+  0.0     240407 V06  0.0   0.1+    240410 Z84  0.0   0.0
240407 V00  0.5-  0.1-    240407 V06  0.2+  0.2-    240410 Z84  0.1-  0.2-
240407 291  0.5-  0.1-    240407 V06  0.0   0.1-    240410 Z84  0.1+  0.1+
240407 291  0.4-  0.1+    240408 291  0.3-  0.5+

Ephemeris:
2024 GG2                 a,e,i = 0.89, 0.35, 25                  q = 0.5778
Date    TT    R. A. (2000) Decl.     Delta      r    Elong.  Phase     V
2024 03 11    19 33 51.5 +38 08 38   0.2800  0.9249    67.8    95.9    24.8
...
2024 03 26    18 21 18.9 +40 45 42   0.1912  1.0103    88.4    80.7    23.6
...
2024 04 03    17 05 01.7 +40 18 31   0.1475  1.0499   105.9    66.3    22.6
...
2024 04 09    15 38 44.8 +35 38 38   0.1238  1.0767   124.6    50.0    21.8
2024 04 10    15 22 41.1 +34 13 06   0.1212  1.0809   128.1    46.8    21.7
2024 04 11    15 06 31.1 +32 35 09   0.1192  1.0851   131.7    43.6    21.6
...
2024 04 17    13 36 36.2 +19 29 34   0.1190  1.1085   150.0    26.9    21.2
...
2024 04 25    12 17 06.8 +02 14 06   0.1500  1.1358   147.9    28.1    21.7
...
2024 05 10    11 17 59.8 -13 50 36   0.2562  1.1746   124.7    45.0    23.5

A. U. Tomatic                (C) Copyright 2024 MPC           M.P.E.C. 2024-G128





More information about the Iaude mailing list